| time (UTC) | temp F | wind direction | speed MPH | gust MPH | rain 1hr in | rain 24hr in | rain mn in | humidity % | barometer mb |
| 20260504050403 | 80 | 156 | 3.0 | 7.0 | 0.00 | 0.00 | 0.00 | 73 | 1017.0 |
| 20260504045904 | 79 | 131 | 4.0 | 9.0 | 0.00 | 0.00 | 0.00 | 70 | 1017.0 |
| 20260504045404 | 79 | 168 | 4.0 | 10.0 | 0.00 | 0.00 | 0.00 | 70 | 1017.0 |
| 20260504044404 | 79 | 173 | 3.0 | 9.0 | 0.00 | 0.00 | 0.00 | 71 | 1017.0 |
| 20260504043904 | 79 | 104 | 1.0 | 7.0 | 0.00 | 0.00 | 0.00 | 72 | 1017.1 |
| 20260504043404 | 79 | 167 | 1.0 | 6.0 | 0.00 | 0.00 | 0.00 | 73 | 1017.0 |
| 20260504042904 | 78 | 192 | 1.0 | 6.0 | 0.00 | 0.00 | 0.00 | 73 | 1017.0 |
| 20260504042404 | 78 | 179 | 1.0 | 6.0 | 0.00 | 0.00 | 0.00 | 74 | 1016.9 |
| 20260504041904 | 78 | 87 | 1.0 | 5.0 | 0.00 | 0.00 | 0.00 | 74 | 1017.0 |
| 20260504041404 | 78 | 182 | 1.0 | 6.0 | 0.00 | 0.00 | 0.00 | 74 | 1016.9 |
| 20260504040904 | 77 | 171 | 1.0 | 6.0 | 0.00 | 0.00 | 0.00 | 74 | 1016.7 |
| 20260504035904 | 77 | 184 | 0.0 | 0.0 | 0.00 | 0.00 | 0.00 | 75 | 1016.7 |
| 20260504035404 | 76 | 184 | 0.0 | 0.0 | 0.00 | 0.00 | 0.00 | 76 | 1016.7 |
| 20260504034404 | 76 | 184 | 0.0 | 0.0 | 0.00 | 0.00 | 0.00 | 76 | 1016.5 |
| 20260504032904 | 75 | 159 | 0.0 | 0.0 | 0.00 | 0.00 | 0.00 | 77 | 1016.4 |
| 20260504032404 | 75 | 159 | 0.0 | 3.0 | 0.00 | 0.00 | 0.00 | 77 | 1016.4 |
| 20260504031904 | 74 | 163 | 2.0 | 8.0 | 0.00 | 0.00 | 0.00 | 77 | 1016.4 |
| 20260504031404 | 74 | 160 | 3.0 | 8.0 | 0.00 | 0.00 | 0.00 | 78 | 1016.3 |
| 20260504030904 | 73 | 146 | 1.0 | 6.0 | 0.00 | 0.00 | 0.00 | 79 | 1016.3 |
| 20260504030404 | 73 | 190 | 0.0 | 2.0 | 0.00 | 0.00 | 0.00 | 79 | 1016.3 |
| 20260504025904 | 73 | 190 | 0.0 | 0.0 | 0.00 | 0.00 | 0.00 | 79 | 1016.3 |
| 20260504025404 | 73 | 189 | 0.0 | 3.0 | 0.00 | 0.00 | 0.00 | 78 | 1016.3 |
| 20260504023904 | 73 | 116 | 2.0 | 6.0 | 0.00 | 0.00 | 0.00 | 77 | 1016.0 |
| 20260504023404 | 73 | 145 | 2.0 | 8.0 | 0.00 | 0.00 | 0.00 | 77 | 1016.0 |
| 20260504022904 | 74 | 115 | 3.0 | 8.0 | 0.00 | 0.00 | 0.00 | 77 | 1015.8 |
| 20260504022404 | 74 | 141 | 1.0 | 6.0 | 0.00 | 0.00 | 0.00 | 76 | 1015.8 |
| 20260504021904 | 74 | 145 | 2.0 | 10.0 | 0.00 | 0.00 | 0.00 | 76 | 1015.8 |
| 20260504021404 | 74 | 131 | 5.0 | 9.0 | 0.00 | 0.00 | 0.00 | 76 | 1015.7 |
| 20260504020904 | 74 | 109 | 6.0 | 12.0 | 0.00 | 0.00 | 0.00 | 76 | 1015.7 |
| 20260504020404 | 74 | 129 | 5.0 | 9.0 | 0.00 | 0.00 | 0.00 | 76 | 1015.6 |
| 20260504015904 | 74 | 133 | 5.0 | 9.0 | 0.00 | 0.00 | 0.00 | 76 | 1015.6 |
| 20260504015405 | 74 | 109 | 3.0 | 8.0 | 0.00 | 0.00 | 0.00 | 76 | 1015.6 |
| 20260504014404 | 74 | 141 | 2.0 | 8.0 | 0.00 | 0.00 | 0.00 | 76 | 1015.5 |
| 20260504013904 | 74 | 132 | 3.0 | 9.0 | 0.00 | 0.00 | 0.00 | 76 | 1015.5 |
| 20260504013404 | 74 | 143 | 3.0 | 7.0 | 0.00 | 0.00 | 0.00 | 76 | 1015.5 |
| 20260504012904 | 74 | 154 | 3.0 | 8.0 | 0.00 | 0.00 | 0.00 | 76 | 1015.5 |
| 20260504012404 | 74 | 83 | 4.0 | 9.0 | 0.00 | 0.00 | 0.00 | 76 | 1015.6 |
| 20260504011904 | 74 | 146 | 2.0 | 8.0 | 0.00 | 0.00 | 0.00 | 76 | 1015.5 |
| 20260504011404 | 74 | 153 | 3.0 | 10.0 | 0.00 | 0.00 | 0.00 | 76 | 1015.5 |
| 20260504010903 | 74 | 158 | 3.0 | 7.0 | 0.00 | 0.00 | 0.00 | 77 | 1015.6 |
| 20260504010404 | 74 | 138 | 2.0 | 8.0 | 0.00 | 0.00 | 0.00 | 77 | 1015.6 |
| 20260504005904 | 74 | 149 | 3.0 | 9.0 | 0.00 | 0.00 | 0.00 | 77 | 1015.6 |
| 20260504005404 | 74 | 152 | 1.0 | 6.0 | 0.00 | 0.00 | 0.00 | 77 | 1015.6 |
| 20260504004404 | 73 | 147 | 3.0 | 9.0 | 0.00 | 0.00 | 0.00 | 77 | 1015.6 |
| 20260504003904 | 73 | 166 | 2.0 | 8.0 | 0.00 | 0.00 | 0.00 | 78 | 1015.6 |
| 20260504003404 | 73 | 144 | 2.0 | 6.0 | 0.00 | 0.00 | 0.00 | 79 | 1015.7 |
| 20260504002905 | 73 | 172 | 2.0 | 8.0 | 0.00 | 0.00 | 0.00 | 79 | 1015.7 |
| 20260504002404 | 73 | 169 | 0.0 | 5.0 | 0.00 | 0.00 | 0.00 | 80 | 1015.7 |
| 20260504001904 | 73 | 154 | 1.0 | 6.0 | 0.00 | 0.00 | 0.00 | 80 | 1015.7 |
| 20260504001404 | 73 | 154 | 0.0 | 5.0 | 0.00 | 0.00 | 0.00 | 81 | 1015.7 |
| 20260504000904 | 73 | 141 | 1.0 | 5.0 | 0.00 | 0.00 | 0.00 | 81 | 1015.7 |
| 20260504000404 | 73 | 167 | 0.0 | 3.0 | 0.00 | 0.00 | 0.00 | 81 | 1015.7 |
| 20260503235904 | 73 | 167 | 0.0 | 3.0 | 0.00 | 0.00 | 0.00 | 81 | 1015.8 |
| 20260503235404 | 73 | 121 | 1.0 | 3.0 | 0.00 | 0.00 | 0.00 | 82 | 1015.7 |
| 20260503234904 | 72 | 156 | 0.0 | 5.0 | 0.00 | 0.00 | 0.00 | 83 | 1015.7 |
| 20260503234404 | 72 | 168 | 0.0 | 3.0 | 0.00 | 0.00 | 0.00 | 83 | 1015.7 |
| 20260503233904 | 72 | 171 | 1.0 | 3.0 | 0.00 | 0.00 | 0.00 | 83 | 1015.8 |
| 20260503232904 | 72 | 174 | 1.0 | 5.0 | 0.00 | 0.00 | 0.00 | 83 | 1015.9 |
| 20260503232404 | 73 | 162 | 0.0 | 0.0 | 0.00 | 0.00 | 0.00 | 83 | 1015.9 |
| 20260503231904 | 72 | 152 | 0.0 | 5.0 | 0.00 | 0.00 | 0.00 | 83 | 1015.9 |
| 20260503231404 | 72 | 166 | 0.0 | 5.0 | 0.00 | 0.00 | 0.00 | 84 | 1015.9 |
| 20260503230904 | 72 | 160 | 1.0 | 5.0 | 0.00 | 0.00 | 0.00 | 84 | 1015.9 |
| 20260503230404 | 72 | 164 | 0.0 | 0.0 | 0.00 | 0.00 | 0.00 | 84 | 1015.9 |
| 20260503225905 | 72 | 165 | 0.0 | 1.0 | 0.00 | 0.00 | 0.00 | 84 | 1016.0 |
| 20260503225404 | 72 | 174 | 0.0 | 0.0 | 0.00 | 0.00 | 0.00 | 84 | 1016.0 |
| 20260503224904 | 72 | 181 | 0.0 | 0.0 | 0.00 | 0.00 | 0.00 | 84 | 1016.1 |
| 20260503223904 | 72 | 195 | 0.0 | 0.0 | 0.00 | 0.00 | 0.00 | 84 | 1016.1 |
| 20260503223403 | 72 | 173 | 0.0 | 0.0 | 0.00 | 0.00 | 0.00 | 84 | 1016.1 |
| 20260503222904 | 72 | 173 | 0.0 | 0.0 | 0.00 | 0.00 | 0.00 | 84 | 1016.2 |
| 20260503222404 | 72 | 173 | 0.0 | 0.0 | 0.00 | 0.00 | 0.00 | 84 | 1016.2 |
| 20260503221904 | 72 | 173 | 0.0 | 0.0 | 0.00 | 0.00 | 0.00 | 84 | 1016.2 |
| 20260503221405 | 72 | 178 | 0.0 | 3.0 | 0.00 | 0.00 | 0.00 | 84 | 1016.2 |
| 20260503220904 | 72 | 181 | 0.0 | 3.0 | 0.00 | 0.00 | 0.00 | 84 | 1016.3 |
| 20260503220403 | 72 | 182 | 0.0 | 3.0 | 0.00 | 0.00 | 0.00 | 83 | 1016.4 |
| 20260503215904 | 73 | 191 | 0.0 | 0.0 | 0.00 | 0.00 | 0.00 | 83 | 1016.4 |
| 20260503215404 | 73 | 191 | 0.0 | 0.0 | 0.00 | 0.00 | 0.00 | 83 | 1016.4 |
| 20260503214904 | 73 | 191 | 0.0 | 0.0 | 0.00 | 0.00 | 0.00 | 83 | 1016.4 |
| 20260503214404 | 73 | 191 | 0.0 | 0.0 | 0.00 | 0.00 | 0.00 | 83 | 1016.5 |
| 20260503213903 | 73 | 192 | 0.0 | 0.0 | 0.00 | 0.00 | 0.00 | 83 | 1016.5 |
| 20260503213404 | 73 | 192 | 0.0 | 0.0 | 0.00 | 0.00 | 0.00 | 83 | 1016.7 |
| 20260503212904 | 73 | 192 | 0.0 | 0.0 | 0.00 | 0.00 | 0.00 | 82 | 1016.7 |
| 20260503212404 | 73 | 192 | 0.0 | 0.0 | 0.00 | 0.00 | 0.00 | 82 | 1016.7 |
| 20260503211905 | 73 | 192 | 0.0 | 1.0 | 0.00 | 0.00 | 0.00 | 82 | 1016.8 |
| 20260503211404 | 73 | 192 | 0.0 | 0.0 | 0.00 | 0.00 | 0.00 | 82 | 1016.8 |
| 20260503210904 | 73 | 192 | 0.0 | 0.0 | 0.00 | 0.00 | 0.00 | 82 | 1016.8 |
| 20260503210404 | 73 | 192 | 0.0 | 0.0 | 0.00 | 0.00 | 0.00 | 82 | 1016.9 |
| 20260503205404 | 72 | 192 | 0.0 | 0.0 | 0.00 | 0.00 | 0.00 | 83 | 1017.0 |
| 20260503204904 | 72 | 193 | 0.0 | 0.0 | 0.00 | 0.00 | 0.00 | 83 | 1017.0 |
| 20260503204405 | 72 | 193 | 0.0 | 0.0 | 0.00 | 0.00 | 0.00 | 83 | 1017.0 |
| 20260503203404 | 72 | 192 | 0.0 | 0.0 | 0.00 | 0.00 | 0.00 | 83 | 1017.1 |
| 20260503202904 | 72 | 193 | 0.0 | 0.0 | 0.00 | 0.00 | 0.00 | 82 | 1017.2 |
| 20260503202405 | 72 | 192 | 0.0 | 0.0 | 0.00 | 0.00 | 0.00 | 82 | 1017.2 |
| 20260503201904 | 73 | 192 | 0.0 | 0.0 | 0.00 | 0.00 | 0.00 | 82 | 1017.2 |
| 20260503201404 | 72 | 193 | 0.0 | 0.0 | 0.00 | 0.00 | 0.00 | 82 | 1017.2 |
| 20260503200904 | 72 | 192 | 0.0 | 1.0 | 0.00 | 0.00 | 0.00 | 82 | 1017.3 |
| 20260503200404 | 72 | 193 | 0.0 | 1.0 | 0.00 | 0.00 | 0.00 | 82 | 1017.3 |
| 20260503195404 | 72 | 192 | 0.0 | 2.0 | 0.00 | 0.00 | 0.00 | 82 | 1017.4 |
| 20260503194904 | 72 | 185 | 0.0 | 0.0 | 0.00 | 0.00 | 0.00 | 82 | 1017.3 |
| 20260503194404 | 72 | 181 | 0.0 | 1.0 | 0.00 | 0.00 | 0.00 | 82 | 1017.4 |
| 20260503193404 | 72 | 188 | 0.0 | 0.0 | 0.00 | 0.00 | 0.00 | 82 | 1017.4 |
| 20260503192904 | 72 | 188 | 0.0 | 0.0 | 0.00 | 0.00 | 0.00 | 81 | 1017.4 |
| 20260503192404 | 73 | 199 | 0.0 | 0.0 | 0.00 | 0.00 | 0.00 | 80 | 1017.4 |
| 20260503191404 | 74 | 173 | 0.0 | 0.0 | 0.00 | 0.00 | 0.00 | 79 | 1017.5 |
| 20260503190904 | 74 | 172 | 0.0 | 3.0 | 0.00 | 0.00 | 0.00 | 79 | 1017.5 |
| 20260503190404 | 74 | 155 | 2.0 | 6.0 | 0.00 | 0.00 | 0.00 | 79 | 1017.5 |
| 20260503185404 | 73 | 170 | 1.0 | 6.0 | 0.00 | 0.00 | 0.00 | 80 | 1017.4 |
| 20260503184904 | 73 | 163 | 0.0 | 2.0 | 0.00 | 0.00 | 0.00 | 80 | 1017.5 |
| 20260503184404 | 73 | 189 | 0.0 | 5.0 | 0.00 | 0.00 | 0.00 | 80 | 1017.5 |
| 20260503183904 | 73 | 184 | 0.0 | 1.0 | 0.00 | 0.00 | 0.00 | 80 | 1017.4 |
| 20260503183404 | 73 | 179 | 1.0 | 5.0 | 0.00 | 0.00 | 0.00 | 80 | 1017.5 |
| 20260503182904 | 72 | 170 | 0.0 | 3.0 | 0.00 | 0.00 | 0.00 | 80 | 1017.4 |
| 20260503182404 | 72 | 157 | 0.0 | 0.0 | 0.00 | 0.00 | 0.00 | 80 | 1017.5 |
| 20260503181904 | 72 | 162 | 0.0 | 0.0 | 0.00 | 0.00 | 0.00 | 80 | 1017.5 |
| 20260503181404 | 72 | 150 | 0.0 | 1.0 | 0.00 | 0.00 | 0.00 | 80 | 1017.4 |
| 20260503180905 | 72 | 187 | 0.0 | 3.0 | 0.00 | 0.00 | 0.00 | 80 | 1017.5 |
| 20260503180404 | 72 | 172 | 0.0 | 1.0 | 0.00 | 0.00 | 0.00 | 80 | 1017.6 |
| 20260503175904 | 72 | 163 | 1.0 | 5.0 | 0.00 | 0.00 | 0.00 | 80 | 1017.5 |
| 20260503175404 | 72 | 179 | 0.0 | 3.0 | 0.00 | 0.00 | 0.00 | 80 | 1017.5 |
| 20260503174904 | 72 | 171 | 0.0 | 5.0 | 0.00 | 0.00 | 0.00 | 80 | 1017.5 |
| 20260503174404 | 72 | 178 | 0.0 | 3.0 | 0.00 | 0.00 | 0.00 | 80 | 1017.5 |
| 20260503173905 | 72 | 155 | 0.0 | 1.0 | 0.00 | 0.00 | 0.00 | 80 | 1017.5 |
| 20260503172404 | 72 | 165 | 0.0 | 7.0 | 0.00 | 0.00 | 0.00 | 79 | 1017.5 |
| 20260503171904 | 72 | 157 | 0.0 | 6.0 | 0.00 | 0.00 | 0.00 | 79 | 1017.5 |
| 20260503171404 | 72 | 184 | 1.0 | 6.0 | 0.00 | 0.00 | 0.00 | 79 | 1017.5 |
| 20260503170904 | 72 | 159 | 2.0 | 6.0 | 0.00 | 0.00 | 0.00 | 79 | 1017.4 |
| 20260503170404 | 72 | 168 | 0.0 | 3.0 | 0.00 | 0.00 | 0.00 | 78 | 1017.5 |
| 20260503150904 | 74 | 144 | 1.0 | 3.0 | 0.00 | 0.00 | 0.00 | 77 | 1016.6 |
| 20260503150405 | 74 | 166 | 0.0 | 5.0 | 0.00 | 0.00 | 0.00 | 77 | 1016.5 |
| 20260503131404 | 78 | 138 | 0.0 | 7.0 | 0.00 | 0.01 | 0.00 | 70 | 1015.4 |
| 20260503130904 | 78 | 7 | 2.0 | 9.0 | 0.00 | 0.01 | 0.00 | 70 | 1015.3 |
| 20260503130403 | 78 | 117 | 0.0 | 8.0 | 0.00 | 0.01 | 0.00 | 69 | 1015.3 |
| 20260503110405 | 80 | 126 | 2.0 | 12.0 | 0.00 | 0.08 | 0.00 | 68 | 1015.3 |
| 20260503081404 | 82 | 118 | 1.0 | 12.0 | 0.00 | 0.14 | 0.00 | 70 | 1016.8 |
| 20260503080903 | 82 | 61 | 6.0 | 16.0 | 0.00 | 0.14 | 0.00 | 70 | 1017.0 |
| 20260503080404 | 82 | 85 | 5.0 | 12.0 | 0.00 | 0.14 | 0.00 | 70 | 1017.1 |
| 20260503072904 | 81 | 142 | 7.0 | 14.0 | 0.00 | 0.14 | 0.00 | 71 | 1017.3 |
| 20260503072404 | 81 | 72 | 5.0 | 17.0 | 0.00 | 0.14 | 0.00 | 71 | 1017.4 |
| 20260503071904 | 82 | 85 | 3.0 | 16.0 | 0.00 | 0.14 | 0.00 | 71 | 1017.4 |
| 20260503071404 | 82 | 75 | 7.0 | 13.0 | 0.00 | 0.14 | 0.00 | 70 | 1017.5 |
| 20260503070904 | 82 | 84 | 7.0 | 13.0 | 0.00 | 0.14 | 0.00 | 69 | 1017.5 |
| 20260503070404 | 82 | 99 | 5.0 | 12.0 | 0.00 | 0.14 | 0.00 | 69 | 1017.6 |